Location: Poughquag
(41.6090°N, 73.6820°W)
Time: 17:04:16
(UTC-04:00)

EO-79 - Visible Passes

Search period start: 16 July 2024 00:00
Search period end: 26 July 2024 00:00
Orbit: 555 x 577 km, 98.0° (Epoch: 16 July)

Date Brightness Start Highest point End Pass type
(mag) Time Alt. Az. Time Alt. Az. Time Alt. Az.
16 Jul ? 03:48:19 10° NNE 03:52:02 36° E 03:55:42 10° SSE visible
17 Jul ? 03:48:58 10° NNE 03:52:42 36° E 03:56:21 10° SSE visible
18 Jul ? 03:49:36 10° NNE 03:53:21 37° E 03:56:58 11° SSE visible
19 Jul ? 03:50:13 10° NNE 03:53:58 37° E 03:57:33 11° SSE visible
20 Jul ? 03:50:49 10° NNE 03:54:35 37° E 03:58:08 11° SSE visible
21 Jul ? 03:51:23 10° NNE 03:55:10 38° E 03:58:41 11° SSE visible
22 Jul ? 03:51:56 10° NNE 03:55:44 38° E 03:59:13 12° SSE visible
23 Jul ? 03:52:28 10° NNE 03:56:16 39° E 03:59:44 12° SSE visible
24 Jul ? 03:52:59 10° NNE 03:56:48 39° E 04:00:13 12° SSE visible
25 Jul ? 03:53:29 10° NNE 03:57:18 39° E 04:00:41 13° SSE visible
